Tracking 19709 objects as of 20-Jun-2019
HD Live streaming from Space Station
objects crossing your sky now

SCOUT B-1 DEB

Track SCOUT B-1 DEB now!
10-day predictions


NORAD ID: 8867
Int'l Code: 1976-047C
Perigee: 1,000.6 km
Apogee: 1,109.9 km
Inclination: 99.4 °
Period: 106.1 minutes
Semi major axis: 7426 km
RCS: 0.05 m2 (small)
Launch date: May 22, 1976
Source: United States (US)
Launch site: AIR FORCE WESTERN TEST RANGE (AFWTR)

Note: This is SATELLITE DEBRIS
aabbcc
Your satellite tracking list
Your tracking list is empty




NASA's NSSDC Master Catalog

Two Line Element Set (TLE):
1  8867U 76047C   19170.04888882 +.00000008 +00000-0 +69709-4 0  9990
2  8867 099.3998 095.7264 0073596 308.1234 183.5631 13.56583469129348
Source of the keplerian elements: AFSPC